GUSTAVUS AK US NWS current weather conditions

sailwx.info

Air temperature -13.9° C
Dewpoint -20.1° C

Last reported at 2020-Jan-18 13:02 UTC.
Time now 2020-Jan-18 14:01 UTC

Location: N 58°24' W 135°44'.
View on Google Maps.

See reports from other nearby stations

  
Tides and Currents Weather Stations Pressure Air Temp Water Temp Dewpoint Dewpoint Depression Visibility Wind Speed Wind Dir Waves Ship Positions
date/time (UTC)wind fromknots sea level pressurealtimeterstation pressurevisibilityair tempwater tempwave heightnotes
2020-Jan-18 13:02 -13.9
2020-Jan-18 12:52 110 0 gusting 2 -13.8
2020-Jan-18 12:42 010 1 gusting 2 -13.2
2020-Jan-18 12:32 030 1 gusting 2 -12.9
2020-Jan-18 12:22 040 1 gusting 2 -13.5
2020-Jan-18 12:12 020 0 gusting 2 -13.7
2020-Jan-18 12:02 030 1 gusting 2 -13.8
2020-Jan-18 11:52 030 1 gusting 2 -13.8
2020-Jan-18 11:42 070 1 gusting 2 -13.9
2020-Jan-18 11:32 020 1 gusting 4 -13.4
2020-Jan-18 11:22 040 0 gusting 2 -13.2
2020-Jan-18 11:12 040 0 gusting 2 -12.7
2020-Jan-18 11:02 010 1 gusting 4 -11.8
2020-Jan-18 10:52 020 1 gusting 4 -12.2
2020-Jan-18 10:42 350 1 gusting 5 -12.0
2020-Jan-18 10:32 340 0 gusting 2 -11.8
2020-Jan-18 10:22 030 0 gusting 2 -12.0
2020-Jan-18 10:12 040 1 gusting 4 -12.1
2020-Jan-18 10:02 020 1 gusting 4 -12.5
2020-Jan-18 09:52 350 2 gusting 5 -12.2
2020-Jan-18 09:42 350 2 gusting 5 -12.6
2020-Jan-18 09:32 320 1 gusting 4 -11.9
2020-Jan-18 09:22 340 2 gusting 6 -12.4
2020-Jan-18 09:12 350 1 gusting 2 -12.7
2020-Jan-18 09:02 330 1 gusting 4 -12.7
2020-Jan-18 08:52 330 1 gusting 5 -12.9
2020-Jan-18 08:42 330 2 gusting 4 -12.9
2020-Jan-18 08:32 340 2 gusting 4 -13.5
2020-Jan-18 08:22 350 2 gusting 5 -13.8
2020-Jan-18 08:12 340 2 gusting 6 -13.3
2020-Jan-18 08:02 350 1 gusting 4 -12.9
2020-Jan-18 07:52 340 1 gusting 5 -12.7
2020-Jan-18 07:42 340 1 gusting 6 -12.5
2020-Jan-18 07:32 330 1 gusting 2 -12.3
2020-Jan-18 07:22 340 1 gusting 2 -12.0
2020-Jan-18 07:12 350 1 gusting 2 -12.2
2020-Jan-18 07:02 360 2 gusting 5 -12.1
2020-Jan-18 06:52 350 1 gusting 2 -12.3
2020-Jan-18 06:42 330 1 gusting 4 -12.5
2020-Jan-18 06:32 320 1 gusting 2 -12.3
2020-Jan-18 06:22 340 1 gusting 4 -12.7
2020-Jan-18 06:12 330 1 gusting 4 -13.0
2020-Jan-18 06:02 330 2 gusting 5 -13.0
2020-Jan-18 05:52 330 2 gusting 5 -13.3
2020-Jan-18 05:42 330 0 gusting 2 -13.0
2020-Jan-18 05:32 350 1 gusting 2 -12.9
2020-Jan-18 05:22 330 2 gusting 4 -12.8
2020-Jan-18 05:12 320 2 gusting 5 -12.5
2020-Jan-18 05:02 310 2 gusting 4 -12.3
2020-Jan-18 04:52 300 2 gusting 5 -12.4
2020-Jan-18 04:42 310 1 gusting 2 -12.4
2020-Jan-18 04:32 320 2 gusting 4 -12.7
2020-Jan-18 04:22 320 2 gusting 4 -12.5
2020-Jan-18 04:12 320 2 gusting 5 -12.0
2020-Jan-18 04:02 330 2 gusting 5 -11.9
2020-Jan-18 03:52 340 2 gusting 6 -12.3
2020-Jan-18 03:42 330 2 gusting 6 -12.3
2020-Jan-18 03:32 330 2 gusting 5 -12.6
2020-Jan-18 03:22 320 2 gusting 6 -12.2
2020-Jan-18 03:12 330 2 gusting 4 -12.4
2020-Jan-18 03:02 330 2 gusting 4 -12.0
2020-Jan-18 02:52 330 1 gusting 4 -11.7
2020-Jan-18 02:42 330 2 gusting 6 -11.7
2020-Jan-18 02:32 320 4 gusting 6 -11.8
2020-Jan-18 02:22 330 2 gusting 4 -11.8
2020-Jan-18 02:12 330 2 gusting 5 -11.7
2020-Jan-18 02:02 330 2 gusting 6 -11.4
2020-Jan-18 01:52 330 2 gusting 4 -11.1
2020-Jan-18 01:42 330 2 gusting 5 -10.8
2020-Jan-18 01:32 330 2 gusting 5 -10.5
2020-Jan-18 01:22 340 2 gusting 6 -10.3
2020-Jan-18 01:12 330 4 gusting 7 -10.3
2020-Jan-18 01:02 330 2 gusting 4 -9.9
2020-Jan-18 00:52 340 1 gusting 4 -9.6
2020-Jan-18 00:42 350 2 gusting 4 -9.1
2020-Jan-18 00:32 350 2 gusting 5 -8.8
2020-Jan-18 00:22 350 4 gusting 6 -8.6
2020-Jan-18 00:12 340 4 gusting 6 -8.4
2020-Jan-17 23:52 350 4 gusting 7 -8.1
2020-Jan-17 23:42 350 4 gusting 7 -8.1
2020-Jan-17 23:32 330 4 gusting 6 -8.0
2020-Jan-17 23:22 330 4 gusting 8 -7.7
2020-Jan-17 23:12 350 4 gusting 6 -7.4
2020-Jan-17 23:02 360 4 gusting 8 -7.5
2020-Jan-17 22:52 360 5 gusting 8 -7.5
2020-Jan-17 22:42 360 4 gusting 9 -7.5
2020-Jan-17 22:32 350 4 gusting 7 -7.5
2020-Jan-17 22:22 360 4 gusting 7 -7.4
2020-Jan-17 22:12 360 4 gusting 7 -7.5
2020-Jan-17 22:02 360 4 gusting 6 -7.5
2020-Jan-17 21:52 360 4 gusting 8 -7.5
2020-Jan-17 21:42 360 5 gusting 11 -7.6
2020-Jan-17 21:32 350 2 gusting 6 -7.6
2020-Jan-17 21:22 330 2 gusting 5 -7.7
2020-Jan-17 21:12 350 2 gusting 5 -7.7
2020-Jan-17 21:02 350 4 gusting 7 -7.9
2020-Jan-17 20:52 340 2 gusting 6 -7.9
2020-Jan-17 20:42 340 2 gusting 5 -8.1
2020-Jan-17 20:32 360 1 gusting 6 -8.2
2020-Jan-17 20:22 360 2 gusting 6 -8.4
2020-Jan-17 20:12 010 4 gusting 6 -8.7
2020-Jan-17 20:02 350 2 gusting 5 -8.9
2020-Jan-17 19:52 350 2 gusting 6 -9.2
2020-Jan-17 19:42 350 2 gusting 6 -9.4
2020-Jan-17 19:32 320 2 gusting 6 -9.9
2020-Jan-17 19:22 320 2 gusting 7 -10.1
2020-Jan-17 19:12 320 1 gusting 6 -10.1
2020-Jan-17 19:02 340 1 gusting 4 -10.1
2020-Jan-17 18:52 010 1 gusting 6 -10.3
2020-Jan-17 18:42 350 2 gusting 6 -10.6
2020-Jan-17 18:32 010 2 gusting 6 -11.1
2020-Jan-17 18:22 350 4 gusting 6 -11.3
2020-Jan-17 18:12 350 2 gusting 9 -11.3
2020-Jan-17 18:02 360 2 gusting 6 -11.3
2020-Jan-17 17:52 330 2 gusting 6 -11.3
2020-Jan-17 17:42 350 2 gusting 5 -10.9
2020-Jan-17 17:32 350 2 gusting 6 -10.5
2020-Jan-17 17:22 010 2 gusting 6 -10.5
2020-Jan-17 17:12 010 2 gusting 6 -10.4
2020-Jan-17 17:02 020 2 gusting 6 -10.2
2020-Jan-17 16:52 030 2 gusting 7 -10.4
2020-Jan-17 16:42 030 2 gusting 6 -10.7
2020-Jan-17 16:32 360 2 gusting 9 -10.9
2020-Jan-17 16:22 360 1 gusting 5 -10.6
2020-Jan-17 16:12 020 2 gusting 8 -10.2
2020-Jan-17 16:02 020 2 gusting 8 -10.3
2020-Jan-17 15:52 360 2 gusting 11 -10.8
2020-Jan-17 15:42 020 1 gusting 6 -10.8
2020-Jan-17 15:32 360 4 gusting 7 -11.0
2020-Jan-17 15:22 350 2 gusting 6 -11.2
2020-Jan-17 15:12 020 1 gusting 6 -11.7
2020-Jan-17 15:02 330 2 gusting 9 -11.7
2020-Jan-17 14:52 350 1 gusting 2 -11.4
2020-Jan-17 14:42 330 1 gusting 4 -11.4
2020-Jan-17 14:32 320 2 gusting 5 -11.2
2020-Jan-17 14:22 350 2 gusting 9 -10.8
2020-Jan-17 14:12 010 1 gusting 6 -10.7
2020-Jan-17 14:02 010 4 gusting 17 -10.7
2020-Jan-17 13:52 010 1 gusting 6 -11.2
2020-Jan-17 13:42 360 2 gusting 6 -11.4
2020-Jan-17 13:32 360 2 gusting 7 -11.7
2020-Jan-17 13:22 010 4 gusting 6 -11.7
2020-Jan-17 13:12 010 2 gusting 5 -12.0
2020-Jan-17 13:02 010 1 gusting 5 -11.7
2020-Jan-17 12:52 360 2 gusting 6 -11.7
2020-Jan-17 12:42 020 1 gusting 4 -11.7
2020-Jan-17 12:32 350 2 gusting 4 -11.7
2020-Jan-17 12:22 020 1 gusting 4 -12.1
2020-Jan-17 12:12 010 1 gusting 5 -11.5
2020-Jan-17 12:02 350 2 gusting 6 -11.4
2020-Jan-17 11:52 030 1 gusting 2 -11.4
2020-Jan-17 11:42 060 1 gusting 2 -11.6
2020-Jan-17 11:32 350 0 gusting 2 -11.3
2020-Jan-17 11:22 040 1 gusting 2 -11.6
2020-Jan-17 11:12 350 1 gusting 4 -11.3
2020-Jan-17 11:02 360 1 gusting 4 -11.2
2020-Jan-17 10:52 350 1 gusting 2 -11.2
2020-Jan-17 10:42 360 1 gusting 6 -11.5
2020-Jan-17 10:32 360 4 gusting 6 -11.3
2020-Jan-17 10:22 340 2 gusting 6 -11.3
2020-Jan-17 10:12 360 2 gusting 5 -11.2
2020-Jan-17 10:02 010 1 gusting 4 -11.2
2020-Jan-17 09:52 350 1 gusting 5 -10.9
2020-Jan-17 09:42 030 1 gusting 2 -10.9
2020-Jan-17 09:32 350 1 gusting 5 -10.8
2020-Jan-17 09:22 350 1 gusting 5 -10.5
2020-Jan-17 09:12 340 2 gusting 5 -10.5
2020-Jan-17 09:02 350 2 gusting 5 -10.4
2020-Jan-17 08:52 350 2 gusting 5 -10.6
2020-Jan-17 08:42 350 2 gusting 6 -10.4
2020-Jan-17 08:32 360 2 gusting 5 -10.3
2020-Jan-17 08:22 350 2 gusting 6 -10.2
2020-Jan-17 08:12 350 4 gusting 8 -10.1
2020-Jan-17 08:02 350 2 gusting 6 -10.1
2020-Jan-17 07:52 350 4 gusting 7 -10.0
2020-Jan-17 07:42 350 4 gusting 8 -9.9
2020-Jan-17 07:32 350 5 gusting 11 -9.7
2020-Jan-17 07:22 350 6 gusting 12 -9.7
2020-Jan-17 07:12 350 5 gusting 8 -9.6
2020-Jan-17 07:02 350 6 gusting 12 -9.6
2020-Jan-17 06:52 340 6 gusting 13 -9.4
2020-Jan-17 06:42 350 6 gusting 13 -9.3
2020-Jan-17 06:32 350 7 gusting 13 -9.3
2020-Jan-17 06:22 350 7 gusting 15 -9.3
2020-Jan-17 06:12 350 8 gusting 18 -9.3
2020-Jan-17 06:02 350 7 gusting 14 -9.3
2020-Jan-17 05:52 350 7 gusting 15 -9.3
2020-Jan-17 05:42 350 9 gusting 19 -9.2
2020-Jan-17 05:32 340 6 gusting 14 -9.2
2020-Jan-17 05:22 350 8 gusting 17 -9.1
2020-Jan-17 05:12 350 9 gusting 20 -9.1
2020-Jan-17 05:02 350 6 gusting 15 -9.2
2020-Jan-17 04:52 350 7 gusting 20 -9.2
2020-Jan-17 04:42 350 7 gusting 17 -9.2
2020-Jan-17 04:32 340 6 gusting 15 -9.3
2020-Jan-17 04:22 350 6 gusting 12 -9.3
2020-Jan-17 04:12 350 7 gusting 15 -9.1
2020-Jan-17 04:02 350 7 gusting 22 -9.1
2020-Jan-17 03:52 350 7 gusting 20 -9.0
2020-Jan-17 03:42 350 6 gusting 13 -8.9
2020-Jan-17 03:32 360 7 gusting 19 -8.8
2020-Jan-17 03:22 360 6 gusting 15 -8.8
2020-Jan-17 03:12 350 7 gusting 17 -8.8
2020-Jan-17 03:02 350 7 gusting 18 -8.8
2020-Jan-17 02:52 350 7 gusting 15 -8.8
2020-Jan-17 02:42 350 6 gusting 18 -8.8
2020-Jan-17 02:32 350 7 gusting 15 -8.8
2020-Jan-17 02:22 350 6 gusting 13 -8.8
2020-Jan-17 02:12 350 6 gusting 13 -8.7
2020-Jan-17 02:02 350 7 gusting 15 -8.6
2020-Jan-17 01:52 350 7 gusting 18 -8.5
2020-Jan-17 01:42 350 9 gusting 21 -8.4
2020-Jan-17 01:32 350 8 gusting 19 -8.4
2020-Jan-17 01:22 350 9 gusting 20 -8.2
2020-Jan-17 01:12 360 7 gusting 14 -8.2
2020-Jan-17 01:02 360 8 gusting 15 -8.1
2020-Jan-17 00:52 360 7 gusting 19 -8.1
2020-Jan-17 00:42 350 7 gusting 19 -8.0
2020-Jan-17 00:32 360 7 gusting 17 -8.0
2020-Jan-17 00:22 360 7 gusting 15 -7.9
2020-Jan-17 00:12 360 8 gusting 18 -7.9
2020-Jan-16 23:52 350 11 gusting 20 -7.9
2020-Jan-16 23:42 360 7 gusting 14 -7.9
2020-Jan-16 23:32 350 9 gusting 22 -7.9
2020-Jan-16 23:22 350 7 gusting 18 -7.8
2020-Jan-16 23:12 360 7 gusting 19 -7.8
2020-Jan-16 23:02 360 7 gusting 15 -7.7
2020-Jan-16 22:52 360 7 gusting 19 -7.6
2020-Jan-16 22:42 360 7 gusting 19 -7.6
2020-Jan-16 22:32 360 9 gusting 25 -7.6
2020-Jan-16 22:22 360 11 gusting 25 -7.5
2020-Jan-16 22:12 360 9 gusting 20 -7.5
2020-Jan-16 22:02 360 9 gusting 20 -7.5
2020-Jan-16 21:52 360 9 gusting 21 -7.5
2020-Jan-16 21:42 360 11 gusting 22 -7.4
2020-Jan-16 21:32 360 12 gusting 21 -7.5
2020-Jan-16 21:22 360 9 gusting 19 -7.4
2020-Jan-16 21:12 350 11 gusting 20 -7.4
2020-Jan-16 21:02 360 8 gusting 18 -7.4
2020-Jan-16 20:52 360 7 gusting 17 -7.4
2020-Jan-16 20:42 360 9 gusting 19 -7.3
2020-Jan-16 20:32 360 8 gusting 19 -7.4
2020-Jan-16 20:22 360 9 gusting 20 -7.3
2020-Jan-16 20:12 360 8 gusting 20 -7.4
2020-Jan-16 20:02 350 7 gusting 20 -7.5
2020-Jan-16 19:52 350 9 gusting 20 -7.5
2020-Jan-16 19:42 350 7 gusting 15 -7.7
2020-Jan-16 19:32 350 8 gusting 17 -7.8
2020-Jan-16 19:22 350 6 gusting 13 -7.9
2020-Jan-16 19:12 350 8 gusting 19 -7.8
2020-Jan-16 19:02 350 6 gusting 14 -7.9
2020-Jan-16 18:52 350 8 gusting 21 -8.0
2020-Jan-16 18:42 350 7 gusting 15 -8.0
2020-Jan-16 18:32 350 7 gusting 14 -8.0
2020-Jan-16 18:22 360 9 gusting 20 -8.0
2020-Jan-16 18:12 350 7 gusting 15 -8.1
2020-Jan-16 18:02 350 9 gusting 15 -8.1
2020-Jan-16 17:52 350 8 gusting 20 -7.9
2020-Jan-16 17:42 350 9 gusting 21 -8.0
2020-Jan-16 17:32 350 11 gusting 18 -8.1
2020-Jan-16 17:22 350 9 gusting 20 -8.2
2020-Jan-16 17:12 350 7 gusting 17 -8.1
2020-Jan-16 17:02 350 9 gusting 24 -8.0
2020-Jan-16 16:52 350 7 gusting 21 -8.1
2020-Jan-16 16:42 360 9 gusting 20 -8.1
2020-Jan-16 16:32 350 8 gusting 24 -8.3
2020-Jan-16 16:22 350 7 gusting 17 -8.2
2020-Jan-16 16:12 360 11 gusting 20 -8.1
2020-Jan-16 16:02 350 9 gusting 20 -8.2
2020-Jan-16 15:52 350 7 gusting 20 -8.3
2020-Jan-16 15:42 360 7 gusting 19 -8.1
2020-Jan-16 15:32 360 11 gusting 22 -8.0
2020-Jan-16 15:22 360 13 gusting 28 -8.0
2020-Jan-16 15:12 360 12 gusting 21 -8.3
2020-Jan-16 15:02 360 11 gusting 20 -8.4
2020-Jan-16 14:52 350 9 gusting 18 -8.3
2020-Jan-16 14:42 340 8 gusting 18 -8.4
2020-Jan-16 14:32 350 11 gusting 22 -8.5
2020-Jan-16 14:22 350 9 gusting 20 -8.4
2020-Jan-16 14:12 350 9 gusting 19 -8.3
2020-Jan-16 14:02 340 9 gusting 20 -8.3